Regional Weather Roundup
Issued by NWS Newport/Morehead, NC

Current Version | Previous Version | Graphics & Text | Print | Product List | Glossary Off
Versions: 1 2 3 4 5 6 7 8 9 10 11 12 13 14 15 16 17 18 19 20 21 22 23 24 25 26 27 28 29 30 31 32 33 34 35 36 37 38 39 40 41 42 43 44 45 46 47 48 49 50

000
ASUS42 KMHX 020225
RWRMHX
WEATHER ROUNDUP FOR EASTERN NORTH CAROLINA
NATIONAL WEATHER SERVICE NEWPORT/MOREHEAD CITY NC
1000 PM EDT TUE SEP 01 2015

NOTE: "FAIR" INDICATES FEW OR NO CLOUDS BELOW 12,000 FEET
WITH NO SIGNIFICANT WEATHER AND/OR OBSTRUCTIONS TO VISIBILITY

NCZ015>017-031-032-045>047-102-103-020300-
NORTH COAST

CITY           SKY/WX    TMP DP  RH WIND       PRES   REMARKS
EDENTON        CLEAR     72  70  91 CALM      30.06F
ELIZABETH CITY PTCLDY    75  73  93 S5        30.06R
KITTY HAWK     CLEAR     74  69  82 CALM      30.06S
MANTEO         CLEAR     74  73  95 CALM      30.07S

$$

NCZ045>047-081-094-103-104-020300-
CENTRAL COAST

CITY           SKY/WX    TMP DP  RH WIND       PRES   REMARKS
FRISCO         PTCLDY    75  73  93 CALM      30.07R
SWANQUARTER      N/A     75 N/A N/A E2        30.03S

$$

NCZ095-097-098-100-101-020300-
SOUTHERN COAST

CITY           SKY/WX    TMP DP  RH WIND       PRES   REMARKS
BEAUFORT       CLEAR     78  76  93 SW5       30.07R
CEDAR ISLAND     N/A     77 N/A N/A SW2       30.09S
JACKSONVILLE   CLEAR     76  73  91 SW5       30.06S
PINEY ISLAND   CLEAR    N/A N/A N/A S3        30.07R
WILMINGTON     CLEAR     76  73  91 S3        30.07S


$$

NCZ011>013-027>030-043-044-078>080-089-090>093-098-020300-
COASTAL PLAIN

CITY           SKY/WX    TMP DP  RH WIND       PRES   REMARKS
AHOSKIE        CLEAR     71  70  97 CALM      30.06F
CLINTON        CLEAR     75  73  95 CALM      30.07S
ELIZABETHTOWN  CLEAR     78  74  87 S3        30.08R
GOLDSBORO      CLEAR     77  71  83 CALM      30.05S
GREENVILLE     CLEAR     73  73 100 CALM      30.08S
HAVELOCK       CLEAR     76  73  91 SW6       30.08R
KENANSVILLE      N/A     73  72  96 CALM      30.08S
KINSTON        CLEAR     73  72  96 CALM      30.08R
NEW BERN       CLEAR     74  72  93 CALM      30.08R
RICHLANDS      CLEAR     73  70  88 SW3       30.07S
ROCKY MOUNT    CLEAR     74  71  91 CALM      30.07R
WASHINGTON     CLEAR     73  71  93 CALM      30.07S
WHITEVILLE     CLEAR     77  74  88 CALM      30.07S

$$

AMZ130-135-150-152-154-156-158-170-250-252-270-ANZ085-086-088-633-658-670-020300-
MARINE OBSERVATIONS

STATION/POSITION TIME  TEMP    WIND        PRES    WAVE   SWELL
                       AIR SEA DIR/SP/G            HT/PER HT/PER
                 (UTC) (F)     (DEG/KT/KT) (MB)    (FT/S) (FT/S)
CHESAPEAKE LIGHT 0200   77     190/  5/  6 1018.6
64 E VA BEACH    0150   78 79   70/  2/  2 1017.5    2/ 8   2/ 8
DUCK             0200   78 78  160/  4/  5 1017.4
2 E DUCK         0111      81                N/A     1/ 9
OREGON INLET     0200   77 82  110/  1/  2 1018.0
13E OREGON INLT  0200      79                N/A     2/ 9
HATTERAS CG      0200   79 83  220/  1/  1 1017.9
DIAMOND BUOY     0150   80 84  310/  4/  6 1018.2    2/ 9   2/ 9
CAPE LOOKOUT     0200   79     260/  7/  8 1017.9
BEAUFORT LAB     0200   80 80  240/  2/  5 1017.5
30 SE NEW RVR IN 0108   81 82  270/  8/ 10 1018.3
30 SE NEW RVR IN 0125      81                N/A     2/10
27 SE WRIGHTSVLE 0200   77 82  240/  8/ 12   N/A
5 SE WRIGHTSVLE  0108   81 82  240/ 10/ 14 1018.1
225 S CAPE HAT   0150   84 85  260/  6/  8 1018.8    3/ 5   3/ 5
41 SE CHARLESTON 0150   82 83  140/  6/  8 1018.5    2/ 7   2/ 7

$$


USA.gov is the U.S. government's official web portal to all federal, state and local government web resources and services.